TimeCDT,TemperatureF,Dew PointF,Humidity,Sea Level PressureIn,VisibilityMPH,Wind Direction,Wind SpeedMPH,Gust SpeedMPH,PrecipitationIn,Events,Conditions,WindDirDegrees,DateUTC
12:15 AM,59.0,53.6,82,30.11,10.0,WNW,15.0,-,N/A,,Scattered Clouds,300,2012-10-05 05:15:00
12:35 AM,57.2,53.6,88,30.11,10.0,WNW,11.5,23.0,N/A,,Mostly Cloudy,290,2012-10-05 05:35:00
12:55 AM,57.2,51.8,82,30.11,10.0,WNW,10.4,-,N/A,,Scattered Clouds,300,2012-10-05 05:55:00
1:15 AM,55.4,51.8,88,30.12,10.0,WNW,12.7,-,N/A,,Mostly Cloudy,290,2012-10-05 06:15:00
1:35 AM,55.4,51.8,88,30.13,10.0,WNW,13.8,-,N/A,,Overcast,300,2012-10-05 06:35:00
1:55 AM,55.4,50.0,82,30.13,10.0,WNW,9.2,-,N/A,,Mostly Cloudy,300,2012-10-05 06:55:00
2:15 AM,53.6,48.2,82,30.12,10.0,WNW,9.2,-,N/A,,Overcast,290,2012-10-05 07:15:00
2:35 AM,53.6,48.2,82,30.12,10.0,West,10.4,-,N/A,,Scattered Clouds,280,2012-10-05 07:35:00
2:55 AM,53.6,46.4,77,30.11,10.0,West,9.2,-,N/A,,Scattered Clouds,280,2012-10-05 07:55:00
3:15 AM,53.6,46.4,77,30.13,10.0,WNW,11.5,-,N/A,,Partly Cloudy,290,2012-10-05 08:15:00
3:35 AM,53.6,48.2,82,30.14,10.0,WNW,12.7,-,N/A,,Mostly Cloudy,300,2012-10-05 08:35:00
3:55 AM,53.6,46.4,77,30.15,10.0,WNW,9.2,-,N/A,,Mostly Cloudy,300,2012-10-05 08:55:00
4:15 AM,51.8,46.4,82,30.16,10.0,WNW,13.8,-,N/A,,Mostly Cloudy,300,2012-10-05 09:15:00
4:35 AM,51.8,46.4,82,30.14,10.0,NW,11.5,-,N/A,,Mostly Cloudy,310,2012-10-05 09:35:00
4:55 AM,51.8,46.4,82,30.13,10.0,NW,6.9,-,N/A,,Mostly Cloudy,320,2012-10-05 09:55:00
5:15 AM,51.8,46.4,82,30.17,10.0,WNW,9.2,-,0.07,,Overcast,300,2012-10-05 10:15:00
5:35 AM,50.0,46.4,87,30.14,10.0,NW,4.6,-,0.18,,Overcast,320,2012-10-05 10:35:00
5:55 AM,48.2,46.4,93,30.14,10.0,NNW,10.4,-,0.20,,Overcast,330,2012-10-05 10:55:00
6:15 AM,48.2,46.4,93,30.14,10.0,WNW,5.8,-,N/A,,Overcast,290,2012-10-05 11:15:00
6:35 AM,48.2,46.4,93,30.15,10.0,West,10.4,-,N/A,,Overcast,280,2012-10-05 11:35:00
6:55 AM,48.2,44.6,87,30.16,10.0,WNW,11.5,-,N/A,,Overcast,290,2012-10-05 11:55:00
7:15 AM,46.4,44.6,93,30.15,9.0,NW,11.5,-,0.01,,Overcast,310,2012-10-05 12:15:00
7:35 AM,46.4,42.8,87,30.14,10.0,NW,5.8,-,0.01,,Overcast,320,2012-10-05 12:35:00
7:55 AM,46.4,44.6,93,30.14,10.0,NW,6.9,-,0.01,,Mostly Cloudy,310,2012-10-05 12:55:00
8:15 AM,46.4,44.6,93,30.13,10.0,WNW,6.9,-,N/A,,Partly Cloudy,290,2012-10-05 13:15:00
8:35 AM,46.4,44.6,93,30.15,10.0,WNW,8.1,-,N/A,,Mostly Cloudy,290,2012-10-05 13:35:00
8:55 AM,46.4,44.6,93,30.14,9.0,West,8.1,-,0.02,,Overcast,280,2012-10-05 13:55:00
9:15 AM,46.4,44.6,93,30.15,10.0,WNW,11.5,-,0.02,,Overcast,290,2012-10-05 14:15:00
9:35 AM,46.4,42.8,87,30.15,10.0,West,9.2,-,0.03,,Overcast,270,2012-10-05 14:35:00
9:55 AM,44.6,42.8,93,30.16,10.0,WNW,10.4,-,0.04,,Overcast,290,2012-10-05 14:55:00
10:15 AM,44.6,42.8,93,30.17,10.0,West,8.1,-,0.02,,Overcast,280,2012-10-05 15:15:00
10:35 AM,46.4,42.8,87,30.15,10.0,West,6.9,-,0.02,,Overcast,280,2012-10-05 15:35:00
10:55 AM,46.4,42.8,87,30.15,10.0,West,6.9,-,0.02,,Overcast,280,2012-10-05 15:55:00
11:35 AM,46.4,44.6,93,30.14,10.0,West,5.8,-,0.02,,Overcast,280,2012-10-05 16:35:00
12:15 PM,46.4,44.6,93,30.13,10.0,West,11.5,-,N/A,,Overcast,280,2012-10-05 17:15:00
12:35 PM,46.4,44.6,93,30.13,10.0,NW,10.4,-,N/A,,Overcast,310,2012-10-05 17:35:00
12:55 PM,46.4,42.8,87,30.11,10.0,NW,10.4,-,N/A,,Overcast,320,2012-10-05 17:55:00
1:35 PM,46.4,42.8,87,30.10,10.0,NW,10.4,-,N/A,,Overcast,310,2012-10-05 18:35:00
1:55 PM,46.4,42.8,87,30.10,10.0,WNW,8.1,-,N/A,,Overcast,290,2012-10-05 18:55:00
2:15 PM,46.4,42.8,87,30.09,10.0,WNW,6.9,-,N/A,,Overcast,290,2012-10-05 19:15:00
2:35 PM,44.6,39.2,81,30.11,10.0,NW,9.2,-,0.01,,Overcast,310,2012-10-05 19:35:00
2:55 PM,44.6,42.8,93,30.11,9.0,WNW,10.4,-,0.05,,Overcast,300,2012-10-05 19:55:00
3:15 PM,44.6,42.8,93,30.09,10.0,WNW,12.7,-,0.07,,Overcast,290,2012-10-05 20:15:00
3:35 PM,44.6,41.0,87,30.08,10.0,WNW,9.2,-,0.07,,Overcast,290,2012-10-05 20:35:00
3:55 PM,44.6,42.8,93,30.07,10.0,West,9.2,-,0.07,,Overcast,280,2012-10-05 20:55:00
4:15 PM,44.6,41.0,87,30.07,10.0,WNW,10.4,-,N/A,,Overcast,300,2012-10-05 21:15:00
4:35 PM,44.6,41.0,87,30.09,10.0,WNW,11.5,-,N/A,,Overcast,300,2012-10-05 21:35:00
4:55 PM,44.6,42.8,93,30.09,10.0,WNW,12.7,-,0.01,,Overcast,300,2012-10-05 21:55:00
5:15 PM,44.6,42.8,93,30.07,10.0,NNW,8.1,-,0.02,,Overcast,330,2012-10-05 22:15:00
5:35 PM,44.6,42.8,93,30.09,10.0,WNW,10.4,-,0.08,,Overcast,300,2012-10-05 22:35:00
5:55 PM,42.8,39.2,87,30.07,10.0,NW,9.2,-,0.14,,Overcast,310,2012-10-05 22:55:00
6:15 PM,42.8,39.2,87,30.07,10.0,NNW,9.2,-,0.10,,Overcast,330,2012-10-05 23:15:00
6:35 PM,42.8,37.4,81,30.09,10.0,WNW,9.2,18.4,0.14,,Overcast,300,2012-10-05 23:35:00
6:55 PM,42.8,39.2,87,30.12,10.0,WNW,12.7,-,0.19,,Overcast,300,2012-10-05 23:55:00
7:15 PM,42.8,39.2,87,30.11,10.0,West,9.2,-,0.07,,Overcast,280,2012-10-06 00:15:00
7:35 PM,42.8,39.2,87,30.09,10.0,WNW,9.2,-,0.08,,Mostly Cloudy,300,2012-10-06 00:35:00
7:55 PM,42.8,39.2,87,30.10,10.0,NW,12.7,-,0.08,,Overcast,310,2012-10-06 00:55:00
8:15 PM,42.8,39.2,87,30.09,10.0,NW,10.4,-,0.04,,Overcast,310,2012-10-06 01:15:00
8:35 PM,42.8,39.2,87,30.07,9.0,NW,8.1,-,0.07,,Overcast,320,2012-10-06 01:35:00
8:55 PM,41.0,39.2,93,30.07,10.0,WNW,8.1,-,0.10,,Overcast,300,2012-10-06 01:55:00
9:15 PM,41.0,39.2,93,30.07,10.0,WNW,6.9,-,0.02,,Overcast,300,2012-10-06 02:15:00
9:35 PM,41.0,39.2,93,30.07,10.0,WNW,9.2,-,0.02,,Mostly Cloudy,290,2012-10-06 02:35:00
9:55 PM,41.0,39.2,93,30.07,10.0,West,9.2,-,0.02,,Overcast,280,2012-10-06 02:55:00
10:15 PM,41.0,39.2,93,30.07,10.0,West,9.2,-,N/A,,Overcast,280,2012-10-06 03:15:00
10:35 PM,41.0,39.2,93,30.08,10.0,WNW,10.4,-,N/A,,Overcast,290,2012-10-06 03:35:00